Tracking 25711 objects as of 23-May-2022
HD Live streaming from Space Station
objects crossing your sky now

COSMOS 1275 DEB

Track COSMOS 1275 DEB now!
10-day predictions


NORAD ID: 13479
Int'l Code: 1981-053GB
Perigee: 640.6 km
Apogee: 680.6 km
Inclination: 82.9 °
Period: 97.8 minutes
Semi major axis: 7031 km
RCS: 0.052 m2 (small)
Launch date: June 4, 1981
Source: Commonwealth of Independent States (former USSR) (CIS)
Launch site: PLESETSK MISSILE AND SPACE COMPLEX (PKMTR)

Note: This is SATELLITE DEBRIS
aabbcc
Your satellite tracking list
Your tracking list is empty




NASA's NSSDC Master Catalog

Two Line Element Set (TLE):
1 13479U 81053FZ  22142.79133581  .00013784  00000-0  21572-2 0  9991
2 13479  82.8930 165.3359 0028440 266.2717  93.5241 14.72395775 93823
Source of the keplerian elements: AFSPC